User: anonymous   Login
Location: Wien
(48.2082°N, 16.3738°E)
Time: 04:27:16
(UTC+02:00)
Language:

DOVE 4 - Orbit

View from above orbital plane
View from above orbital plane
View from above satellite
View from above satellite

Ground track
Ground track

The orbit data is extracted from the following two-line orbital elements,

1 39430U 13066Q   19289.06872306  .00000104  00000-0  28231-4 0  9991
2 39430  97.7591 237.8339 0149904 237.7531 120.9067 14.59295756314016
Epoch (UTC): 16 October 2019 01:38:57
Eccentricity: 0.0149904
inclination: 97.7591°
perigee height: 589 km
apogee height: 801 km
right ascension of ascending node: 237.8339°
argument of perigee: 237.7531°
revolutions per day: 14.59295756
mean anomaly at epoch: 120.9067°
orbit number at epoch: 31401

The dashed part of the orbit path shows where the satellite is in the earth's shadow,  

DLR